TimeCDT,TemperatureF,Dew PointF,Humidity,Sea Level PressureIn,VisibilityMPH,Wind Direction,Wind SpeedMPH,Gust SpeedMPH,PrecipitationIn,Events,Conditions,WindDirDegrees,DateUTC
12:13 AM,57.2,55.4,94,29.78,7.0,East,17.3,25.3,0.03,Rain,Heavy Rain,90,2013-06-09 05:13:00
12:32 AM,57.2,55.4,94,29.77,7.0,East,16.1,27.6,0.06,Rain,Heavy Rain,90,2013-06-09 05:32:00
12:53 AM,57.2,55.4,94,29.76,7.0,East,20.7,27.6,0.06,Rain,Light Rain,90,2013-06-09 05:53:00
1:13 AM,57.2,55.4,94,29.76,7.0,East,23.0,28.8,N/A,Rain,Light Rain,90,2013-06-09 06:13:00
1:32 AM,57.2,55.4,94,29.75,7.0,East,18.4,24.2,N/A,Rain,Light Rain,90,2013-06-09 06:32:00
1:53 AM,57.2,55.4,94,29.73,7.0,East,17.3,25.3,0.01,Rain,Light Rain,90,2013-06-09 06:53:00
2:13 AM,57.2,55.4,94,29.72,5.0,East,19.6,28.8,N/A,Rain,Light Rain,90,2013-06-09 07:13:00
2:32 AM,57.2,55.4,94,29.71,5.0,East,19.6,25.3,0.01,Rain,Light Rain,90,2013-06-09 07:32:00
2:53 AM,57.2,55.4,94,29.70,5.0,East,18.4,27.6,0.01,Rain,Rain,90,2013-06-09 07:53:00
3:13 AM,57.2,55.4,94,29.70,5.0,East,17.3,24.2,0.02,Rain,Light Rain,90,2013-06-09 08:13:00
3:32 AM,57.2,55.4,94,29.68,4.0,East,17.3,24.2,0.04,Rain,Light Rain,100,2013-06-09 08:32:00
3:53 AM,57.2,55.4,94,29.67,4.0,East,15.0,23.0,0.04,Rain,Rain,100,2013-06-09 08:53:00
4:13 AM,59.0,57.2,94,29.67,4.0,East,17.3,23.0,0.03,Rain,Heavy Rain,100,2013-06-09 09:13:00
4:32 AM,59.0,55.4,88,29.66,4.0,ESE,17.3,23.0,0.03,Rain,Light Rain,110,2013-06-09 09:32:00
4:53 AM,59.0,57.2,94,29.66,3.0,ESE,16.1,20.7,0.03,Rain,Light Rain,110,2013-06-09 09:53:00
5:13 AM,59.0,57.2,94,29.66,5.0,ESE,15.0,-,N/A,Rain,Light Rain,110,2013-06-09 10:13:00
5:32 AM,59.0,57.2,94,29.66,5.0,East,13.8,18.4,N/A,,Overcast,100,2013-06-09 10:32:00
5:53 AM,59.0,57.2,94,29.65,4.0,East,15.0,19.6,N/A,,Overcast,100,2013-06-09 10:53:00
6:13 AM,59.0,57.2,94,29.65,2.0,East,15.0,-,N/A,Rain,Rain,100,2013-06-09 11:13:00
6:32 AM,60.8,57.2,88,29.65,3.0,East,13.8,-,0.01,Rain,Heavy Rain,100,2013-06-09 11:32:00
6:53 AM,60.8,57.2,88,29.65,2.5,ESE,13.8,18.4,0.02,Rain,Light Rain,110,2013-06-09 11:53:00
7:12 AM,60.8,57.2,88,29.65,2.5,ESE,15.0,20.7,N/A,Rain,Heavy Rain,110,2013-06-09 12:12:00
7:32 AM,60.8,59.0,94,29.65,5.0,ESE,15.0,20.7,0.03,Rain,Rain,120,2013-06-09 12:32:00
7:53 AM,60.8,59.0,94,29.65,7.0,SE,12.7,-,0.03,Rain,Light Rain,140,2013-06-09 12:53:00
8:12 AM,60.8,59.0,94,29.65,4.0,SE,12.7,17.3,N/A,,Overcast,140,2013-06-09 13:12:00
8:32 AM,62.6,59.0,88,29.66,10.0,SE,12.7,-,N/A,,Overcast,140,2013-06-09 13:32:00
8:53 AM,62.6,60.8,94,29.66,10.0,SE,13.8,-,N/A,,Overcast,130,2013-06-09 13:53:00
9:12 AM,62.6,60.8,94,29.66,5.0,SE,12.7,18.4,N/A,,Overcast,130,2013-06-09 14:12:00
9:32 AM,62.6,60.8,94,29.67,10.0,SE,12.7,-,N/A,,Overcast,140,2013-06-09 14:32:00
9:53 AM,64.4,60.8,88,29.67,10.0,SE,12.7,-,N/A,,Overcast,130,2013-06-09 14:53:00
10:12 AM,64.4,60.8,88,29.67,10.0,SE,12.7,17.3,N/A,,Overcast,130,2013-06-09 15:12:00
10:33 AM,66.2,60.8,83,29.67,10.0,SE,11.5,-,N/A,,Overcast,130,2013-06-09 15:33:00
10:53 AM,66.2,60.8,83,29.68,10.0,ESE,13.8,-,N/A,,Mostly Cloudy,120,2013-06-09 15:53:00
11:12 AM,64.4,60.8,88,29.68,7.0,ESE,15.0,-,N/A,,Mostly Cloudy,110,2013-06-09 16:12:00
11:33 AM,66.2,60.8,83,29.68,10.0,SE,10.4,17.3,N/A,,Mostly Cloudy,130,2013-06-09 16:33:00
11:53 AM,66.2,60.8,83,29.68,10.0,ESE,12.7,-,N/A,,Mostly Cloudy,110,2013-06-09 16:53:00
12:12 PM,66.2,60.8,83,29.69,10.0,SE,9.2,-,N/A,,Mostly Cloudy,130,2013-06-09 17:12:00
12:33 PM,66.2,60.8,83,29.69,10.0,SSE,11.5,-,N/A,,Mostly Cloudy,150,2013-06-09 17:33:00
12:53 PM,68.0,59.0,73,29.69,10.0,SE,9.2,-,N/A,,Scattered Clouds,140,2013-06-09 17:53:00
1:12 PM,69.8,60.8,73,29.69,10.0,SSE,10.4,16.1,N/A,,Scattered Clouds,150,2013-06-09 18:12:00
1:33 PM,69.8,60.8,73,29.69,10.0,ESE,6.9,-,N/A,,Scattered Clouds,120,2013-06-09 18:33:00
1:53 PM,71.6,59.0,64,29.69,10.0,SE,10.4,16.1,N/A,,Scattered Clouds,140,2013-06-09 18:53:00
2:12 PM,69.8,60.8,73,29.69,10.0,East,9.2,-,N/A,,Scattered Clouds,80,2013-06-09 19:12:00
2:33 PM,66.2,60.8,83,29.70,10.0,ENE,9.2,-,N/A,Rain,Rain,70,2013-06-09 19:33:00
2:53 PM,68.0,62.6,83,29.70,10.0,ENE,11.5,-,N/A,,Mostly Cloudy,70,2013-06-09 19:53:00
3:12 PM,66.2,60.8,83,29.70,10.0,ESE,9.2,-,N/A,,Mostly Cloudy,120,2013-06-09 20:12:00
3:33 PM,66.2,60.8,83,29.71,7.0,SE,4.6,-,N/A,Rain,Light Rain,140,2013-06-09 20:33:00
3:53 PM,66.2,62.6,88,29.71,10.0,Calm,Calm,-,N/A,Rain,Light Rain,0,2013-06-09 20:53:00
4:12 PM,66.2,62.6,88,29.71,10.0,WNW,4.6,-,N/A,,Overcast,290,2013-06-09 21:12:00
4:32 PM,68.0,62.6,83,29.71,10.0,NNW,3.5,-,N/A,,Mostly Cloudy,330,2013-06-09 21:32:00
4:53 PM,68.0,62.6,83,29.72,10.0,NNE,5.8,-,N/A,,Mostly Cloudy,20,2013-06-09 21:53:00
5:12 PM,66.2,62.6,88,29.73,10.0,North,8.1,-,N/A,,Light Drizzle,10,2013-06-09 22:12:00
5:32 PM,66.2,62.6,88,29.73,10.0,NNE,10.4,-,N/A,,Scattered Clouds,20,2013-06-09 22:32:00
5:53 PM,66.2,62.6,88,29.74,10.0,North,6.9,-,N/A,,Mostly Cloudy,360,2013-06-09 22:53:00
6:12 PM,68.0,62.6,83,29.74,10.0,NNE,8.1,-,N/A,,Mostly Cloudy,20,2013-06-09 23:12:00
6:32 PM,66.2,62.6,88,29.74,10.0,North,10.4,-,N/A,,Mostly Cloudy,10,2013-06-09 23:32:00
6:52 PM,66.2,62.6,88,29.75,10.0,North,8.1,-,N/A,,Mostly Cloudy,360,2013-06-09 23:52:00
7:12 PM,66.2,62.6,88,29.76,10.0,NNE,5.8,-,N/A,,Scattered Clouds,20,2013-06-10 00:12:00
7:32 PM,66.2,62.6,88,29.76,10.0,NNE,6.9,-,N/A,,Mostly Cloudy,20,2013-06-10 00:32:00
7:52 PM,66.2,62.6,88,29.77,10.0,NNE,9.2,-,N/A,,Scattered Clouds,30,2013-06-10 00:52:00
8:13 PM,64.4,60.8,88,29.78,10.0,NNE,6.9,-,N/A,,Scattered Clouds,20,2013-06-10 01:13:00
8:32 PM,64.4,60.8,88,29.78,10.0,North,5.8,-,N/A,,Clear,10,2013-06-10 01:32:00
8:52 PM,64.4,62.6,94,29.79,10.0,North,6.9,-,N/A,,Scattered Clouds,10,2013-06-10 01:52:00
9:13 PM,64.4,62.6,94,29.79,10.0,North,6.9,-,N/A,Rain,Rain,360,2013-06-10 02:13:00
9:32 PM,64.4,62.6,94,29.80,10.0,North,5.8,-,N/A,,Light Drizzle,10,2013-06-10 02:32:00
9:52 PM,64.4,62.6,94,29.81,10.0,North,5.8,-,N/A,,Overcast,350,2013-06-10 02:52:00
10:13 PM,62.6,60.8,94,29.82,4.0,NNW,11.5,-,N/A,,Overcast,340,2013-06-10 03:13:00
10:33 PM,62.6,60.8,94,29.82,4.0,NNW,12.7,17.3,N/A,,Overcast,340,2013-06-10 03:33:00
10:52 PM,62.6,60.8,94,29.82,4.0,North,11.5,-,N/A,,Mostly Cloudy,350,2013-06-10 03:52:00
11:13 PM,62.6,60.8,94,29.83,4.0,NNW,11.5,-,N/A,,Overcast,340,2013-06-10 04:13:00
11:33 PM,62.6,60.8,94,29.83,4.0,NNW,11.5,-,N/A,,Overcast,340,2013-06-10 04:33:00
11:52 PM,62.6,60.8,94,29.83,4.0,NNW,11.5,-,N/A,,Overcast,340,2013-06-10 04:52:00